Washington, PA

6:01 AM EST on December 16, 2019 (GMT -0500)
Washington County

Weather History for KAFJ - October, 2019

Change the Weather History Date:

Thursday, October 10, 2019

  Actual Average Record
Temperature  
Mean Temperature 59 °F -  
Max Temperature 75 °F 62 °F 82 °F (2018)
Min Temperature 43 °F 41 °F 33 °F (2016)
Degree Days  
Heating Degree Days 6    
Growing Degree Days 9 (Base 50)    
Moisture  
Dew Point 49 °F    
Average Humidity 80    
Maximum Humidity 100    
Minimum Humidity 48    
Precipitation  
Precipitation 0.00 in - - ()
Sea Level Pressure  
Sea Level Pressure 30.23 in    
Wind  
Wind Speed 2 mph ()    
Max Wind Speed 7 mph    
Max Gust Speed -    
Visibility 9.7 miles    
Events      
Averages and records for this station are not official NWS values.
T = Trace of Precipitation, MM = Missing Value Source: Averaged Metar Reports

Daily Weather History Graph

Daily Weather History Graph

Search for Another Location

Airport or City:

Astronomy

Oct. 10, 2019 Rise Set
Actual Time 7:26 AM EDT 6:49 PM EDT
Civil Twilight 6:59 AM EDT 7:16 PM EDT
Nautical Twilight 6:27 AM EDT 7:47 PM EDT
Astronomical Twilight 5:56 AM EDT 8:19 PM EDT
Moon 5:50 PM EDT (10/10) 4:08 AM EDT (10/10)
Length of Visible Light 12h 17m
Length of Day
11h 23m
Waxing Gibbous, 91% of the Moon is Illuminated
Oct 10
Waxing Gibbous
Oct 13
Full
Oct 21
Last Quarter
Oct 27
New
Nov 4
First Quarter

Hourly Weather History & Observations

Time (EDT) Temp. Windchill Dew Point Humidity Pressure Visibility Wind Dir Wind Speed Gust Speed Precip Events Conditions
12:56 AM 48.9 °F - 48.0 °F 97% 30.24 in 10.0 mi NE 3.5 mph - N/A   Clear
1:56 AM 46.9 °F - 46.0 °F 97% 30.23 in 10.0 mi Calm Calm - N/A   Clear
2:56 AM 46.0 °F - 46.0 °F 100% 30.23 in 10.0 mi Calm Calm - N/A   Clear
3:56 AM 45.0 °F - 44.1 °F 97% 30.23 in 10.0 mi Calm Calm - N/A   Clear
4:56 AM 44.1 °F - 44.1 °F 100% 30.24 in 10.0 mi Calm Calm - N/A   Clear
5:56 AM 44.1 °F - 43.0 °F 96% 30.25 in 10.0 mi Calm Calm - N/A   Clear
6:56 AM 43.0 °F 41.3 °F 42.1 °F 97% 30.27 in 10.0 mi East 3.5 mph - N/A   Clear
7:56 AM 43.0 °F - 43.0 °F 100% 30.28 in 10.0 mi Calm Calm - N/A   Clear
8:56 AM 50.0 °F - 46.9 °F 89% 30.29 in 10.0 mi Calm Calm - N/A   Clear
9:56 AM 57.9 °F - 48.0 °F 70% 30.29 in 10.0 mi ESE 4.6 mph - N/A   Clear
10:56 AM 62.1 °F - 48.0 °F 60% 30.28 in 10.0 mi Variable 5.8 mph - N/A   Clear
11:56 AM 66.0 °F - 51.1 °F 59% 30.27 in 4.0 mi SE 4.6 mph - N/A   Haze
12:56 PM 69.1 °F - 53.1 °F 57% 30.25 in 10.0 mi East 5.8 mph - N/A   Clear
1:56 PM 71.1 °F - 54.0 °F 55% 30.22 in 10.0 mi Variable 5.8 mph - N/A   Clear
2:56 PM 73.0 °F - 54.0 °F 51% 30.20 in 10.0 mi Calm Calm - N/A   Clear
3:56 PM 73.9 °F - 54.0 °F 50% 30.20 in 10.0 mi South 6.9 mph - N/A   Clear
4:56 PM 75.0 °F - 54.0 °F 48% 30.19 in 10.0 mi ENE 4.6 mph - N/A   Clear
5:56 PM 72.0 °F - 53.1 °F 51% 30.19 in 9.0 mi ESE 3.5 mph - N/A   Clear
6:56 PM 64.0 °F - 55.0 °F 73% 30.18 in 10.0 mi Calm Calm - N/A   Clear
7:56 PM 57.9 °F - 55.0 °F 90% 30.19 in 10.0 mi Calm Calm - N/A   Clear
8:56 PM 55.0 °F - 53.1 °F 93% 30.20 in 10.0 mi Calm Calm - N/A   Clear
9:56 PM 53.1 °F - 52.0 °F 96% 30.19 in 10.0 mi Calm Calm - N/A   Clear
10:56 PM 52.0 °F - 51.1 °F 97% 30.20 in 10.0 mi Calm Calm - N/A   Clear
11:56 PM 48.9 °F - 48.0 °F 97% 30.20 in 10.0 mi Calm Calm - N/A   Clear